Time,TemperatureF,DewpointF,PressureIn,WindDirection,WindDirectionDegrees,WindSpeedMPH,WindSpeedGustMPH,Humidity,HourlyPrecipIn,Conditions,Clouds,dailyrainin,SoftwareType,DateUTC
2013-01-23 00:02:00,4.5,-0.8,30.24,ENE,61,0.0,1.0,78,0.00,,,0.00,VWS V14.01,2013-01-23 05:02:00,
2013-01-23 00:03:00,4.5,-0.8,30.24,ENE,61,0.0,0.0,78,0.00,,,0.00,VWS V14.01,2013-01-23 05:03:00,
2013-01-23 00:08:00,4.6,-0.7,30.24,ENE,61,0.0,1.0,78,0.00,,,0.00,VWS V14.01,2013-01-23 05:08:00,
2013-01-23 00:13:00,4.7,-0.6,30.23,ENE,61,0.0,1.0,78,0.00,,,0.00,VWS V14.01,2013-01-23 05:13:00,
2013-01-23 00:18:00,4.7,-0.4,30.24,ENE,61,0.0,1.0,79,0.00,,,0.00,VWS V14.01,2013-01-23 05:18:00,
2013-01-23 00:23:00,4.6,-0.5,30.24,ENE,61,0.0,1.0,79,0.00,,,0.00,VWS V14.01,2013-01-23 05:23:00,
2013-01-23 00:28:00,4.7,-0.4,30.24,ENE,61,0.0,1.0,79,0.00,,,0.00,VWS V14.01,2013-01-23 05:28:00,
2013-01-23 00:33:00,4.7,-0.4,30.24,ENE,63,0.0,1.0,79,0.00,,,0.00,VWS V14.01,2013-01-23 05:33:00,
2013-01-23 00:38:00,4.7,-0.4,30.24,ENE,64,0.0,1.0,79,0.00,,,0.00,VWS V14.01,2013-01-23 05:38:00,
2013-01-23 00:43:00,4.7,-0.4,30.24,ENE,63,0.0,1.0,79,0.00,,,0.00,VWS V14.01,2013-01-23 05:43:00,
2013-01-23 00:48:00,4.7,-0.4,30.23,ENE,64,0.0,1.0,79,0.00,,,0.00,VWS V14.01,2013-01-23 05:48:00,
2013-01-23 00:53:00,4.6,-0.2,30.23,ENE,64,0.0,1.0,80,0.00,,,0.00,VWS V14.01,2013-01-23 05:53:00,
2013-01-23 00:58:00,4.7,-0.1,30.23,ENE,63,0.0,1.0,80,0.00,,,0.00,VWS V14.01,2013-01-23 05:58:00,
2013-01-23 01:03:00,4.8,0.0,30.23,ENE,63,0.0,0.0,80,0.00,,,0.00,VWS V14.01,2013-01-23 06:03:00,
2013-01-23 01:08:00,5.0,0.2,30.23,ENE,63,0.0,0.0,80,0.00,,,0.00,VWS V14.01,2013-01-23 06:08:00,
2013-01-23 01:13:00,5.2,0.4,30.23,ENE,63,0.0,1.0,80,0.00,,,0.00,VWS V14.01,2013-01-23 06:13:00,
2013-01-23 01:18:00,5.5,0.7,30.23,ENE,63,0.0,1.0,80,0.00,,,0.00,VWS V14.01,2013-01-23 06:18:00,
2013-01-23 01:23:00,6.0,0.9,30.23,ENE,63,0.0,1.0,79,0.00,,,0.00,VWS V14.01,2013-01-23 06:23:00,
2013-01-23 01:28:00,6.4,1.3,30.23,ENE,64,0.0,1.0,79,0.00,,,0.00,VWS V14.01,2013-01-23 06:28:00,
2013-01-23 01:33:00,6.7,1.3,30.23,ENE,64,0.0,1.0,78,0.00,,,0.00,VWS V14.01,2013-01-23 06:33:00,
2013-01-23 01:38:00,6.9,1.5,30.23,ENE,64,0.0,1.0,78,0.00,,,0.00,VWS V14.01,2013-01-23 06:38:00,
2013-01-23 01:43:00,7.1,1.7,30.23,SE,136,0.0,1.0,78,0.00,,,0.00,VWS V14.01,2013-01-23 06:43:00,
2013-01-23 01:48:00,7.3,1.9,30.23,SE,132,0.0,1.0,78,0.00,,,0.00,VWS V14.01,2013-01-23 06:48:00,
2013-01-23 01:53:00,7.4,1.7,30.23,ESE,115,0.0,2.0,77,0.00,,,0.00,VWS V14.01,2013-01-23 06:53:00,
2013-01-23 01:58:00,7.7,1.7,30.23,ENE,61,2.0,2.0,76,0.00,,,0.00,VWS V14.01,2013-01-23 06:58:00,
2013-01-23 02:03:00,7.9,1.6,30.23,ENE,58,0.0,1.0,75,0.00,,,0.00,VWS V14.01,2013-01-23 07:03:00,
2013-01-23 02:08:00,7.9,1.4,30.23,NE,53,0.0,2.0,74,0.00,,,0.00,VWS V14.01,2013-01-23 07:08:00,
2013-01-23 02:13:00,7.8,1.2,30.23,ESE,105,0.0,2.0,74,0.00,,,0.00,VWS V14.01,2013-01-23 07:13:00,
2013-01-23 02:18:00,7.6,1.4,30.23,NNE,20,0.0,2.0,75,0.00,,,0.00,VWS V14.01,2013-01-23 07:18:00,
2013-01-23 02:23:00,7.3,1.3,30.23,NNE,27,0.0,2.0,76,0.00,,,0.00,VWS V14.01,2013-01-23 07:23:00,
2013-01-23 02:28:00,7.0,1.3,30.24,ENE,60,0.0,2.0,77,0.00,,,0.00,VWS V14.01,2013-01-23 07:28:00,
2013-01-23 02:33:00,6.7,1.3,30.23,ENE,59,0.0,2.0,78,0.00,,,0.00,VWS V14.01,2013-01-23 07:33:00,
2013-01-23 02:38:00,6.5,1.1,30.24,ENE,75,0.0,2.0,78,0.00,,,0.00,VWS V14.01,2013-01-23 07:38:00,
2013-01-23 02:43:00,6.4,1.0,30.23,ENE,75,0.0,2.0,78,0.00,,,0.00,VWS V14.01,2013-01-23 07:43:00,
2013-01-23 02:48:00,6.3,0.9,30.23,ENE,77,0.0,2.0,78,0.00,,,0.00,VWS V14.01,2013-01-23 07:48:00,
2013-01-23 02:53:00,6.2,1.1,30.23,ENE,75,0.0,2.0,79,0.00,,,0.00,VWS V14.01,2013-01-23 07:53:00,
2013-01-23 02:58:00,6.1,1.0,30.23,ENE,75,0.0,2.0,79,0.00,,,0.00,VWS V14.01,2013-01-23 07:58:00,
2013-01-23 03:03:00,6.1,1.0,30.23,ENE,75,0.0,0.0,79,0.00,,,0.00,VWS V14.01,2013-01-23 08:03:00,
2013-01-23 03:08:00,6.0,0.9,30.23,ENE,76,0.0,0.0,79,0.00,,,0.00,VWS V14.01,2013-01-23 08:08:00,
2013-01-23 03:13:00,5.9,1.1,30.23,ENE,75,0.0,0.0,80,0.00,,,0.00,VWS V14.01,2013-01-23 08:13:00,
2013-01-23 03:18:00,5.9,1.1,30.23,ENE,77,0.0,0.0,80,0.00,,,0.00,VWS V14.01,2013-01-23 08:18:00,
2013-01-23 03:23:00,6.1,1.3,30.23,ENE,75,0.0,0.0,80,0.00,,,0.00,VWS V14.01,2013-01-23 08:23:00,
2013-01-23 03:28:00,6.2,1.4,30.23,ENE,75,0.0,1.0,80,0.00,,,0.00,VWS V14.01,2013-01-23 08:28:00,
2013-01-23 03:33:00,6.4,1.6,30.23,ENE,75,0.0,1.0,80,0.00,,,0.00,VWS V14.01,2013-01-23 08:33:00,
2013-01-23 03:38:00,6.5,1.4,30.23,ENE,77,0.0,1.0,79,0.00,,,0.00,VWS V14.01,2013-01-23 08:38:00,
2013-01-23 03:43:00,6.5,1.7,30.23,ENE,75,0.0,1.0,80,0.00,,,0.00,VWS V14.01,2013-01-23 08:43:00,
2013-01-23 03:48:00,6.6,1.5,30.23,ENE,77,0.0,1.0,79,0.00,,,0.00,VWS V14.01,2013-01-23 08:48:00,
2013-01-23 03:53:00,6.8,1.7,30.23,ENE,75,0.0,1.0,79,0.00,,,0.00,VWS V14.01,2013-01-23 08:53:00,
2013-01-23 03:58:00,7.0,1.9,30.23,ENE,77,0.0,1.0,79,0.00,,,0.00,VWS V14.01,2013-01-23 08:58:00,
2013-01-23 04:03:00,7.1,2.0,30.23,ENE,77,0.0,0.0,79,0.00,,,0.00,VWS V14.01,2013-01-23 09:03:00,
2013-01-23 04:08:00,7.3,2.2,30.23,ENE,77,0.0,1.0,79,0.00,,,0.00,VWS V14.01,2013-01-23 09:08:00,
2013-01-23 04:13:00,7.4,2.0,30.23,ENE,77,0.0,1.0,78,0.00,,,0.00,VWS V14.01,2013-01-23 09:13:00,
2013-01-23 04:18:00,7.6,2.2,30.23,ENE,76,0.0,1.0,78,0.00,,,0.00,VWS V14.01,2013-01-23 09:18:00,
2013-01-23 04:23:00,7.7,2.3,30.23,ENE,77,0.0,1.0,78,0.00,,,0.00,VWS V14.01,2013-01-23 09:23:00,
2013-01-23 04:28:00,7.8,2.4,30.23,ENE,77,0.0,1.0,78,0.00,,,0.00,VWS V14.01,2013-01-23 09:28:00,
2013-01-23 04:33:00,7.9,2.2,30.23,ENE,77,0.0,1.0,77,0.00,,,0.00,VWS V14.01,2013-01-23 09:33:00,
2013-01-23 04:38:00,8.1,2.4,30.23,ESE,108,0.0,1.0,77,0.00,,,0.00,VWS V14.01,2013-01-23 09:38:00,
2013-01-23 04:43:00,8.2,2.5,30.23,ESE,107,0.0,1.0,77,0.00,,,0.00,VWS V14.01,2013-01-23 09:43:00,
2013-01-23 04:48:00,8.3,2.6,30.23,SSE,165,0.0,1.0,77,0.00,,,0.00,VWS V14.01,2013-01-23 09:48:00,
2013-01-23 04:53:00,8.3,2.3,30.23,SE,124,0.0,1.0,76,0.00,,,0.00,VWS V14.01,2013-01-23 09:53:00,
2013-01-23 04:58:00,8.4,2.7,30.23,SE,124,0.0,1.0,77,0.00,,,0.00,VWS V14.01,2013-01-23 09:58:00,
2013-01-23 05:03:00,8.6,2.9,30.23,SE,124,0.0,0.0,77,0.00,,,0.00,VWS V14.01,2013-01-23 10:03:00,
2013-01-23 05:08:00,8.7,2.7,30.23,SE,124,0.0,1.0,76,0.00,,,0.00,VWS V14.01,2013-01-23 10:08:00,
2013-01-23 05:13:00,8.8,2.8,30.23,ENE,78,0.0,1.0,76,0.00,,,0.00,VWS V14.01,2013-01-23 10:13:00,
2013-01-23 05:18:00,8.9,2.9,30.23,SE,132,0.0,2.0,76,0.00,,,0.00,VWS V14.01,2013-01-23 10:18:00,
2013-01-23 05:23:00,9.0,2.7,30.23,East,86,0.0,2.0,75,0.00,,,0.00,VWS V14.01,2013-01-23 10:23:00,
2013-01-23 05:28:00,9.1,2.8,30.22,East,84,0.0,2.0,75,0.00,,,0.00,VWS V14.01,2013-01-23 10:28:00,
2013-01-23 05:33:00,9.1,2.8,30.22,ENE,78,2.0,2.0,75,0.00,,,0.00,VWS V14.01,2013-01-23 10:33:00,
2013-01-23 05:38:00,9.0,2.4,30.23,ENE,78,0.0,2.0,74,0.00,,,0.00,VWS V14.01,2013-01-23 10:38:00,
2013-01-23 05:43:00,8.9,2.6,30.23,ENE,74,0.0,2.0,75,0.00,,,0.00,VWS V14.01,2013-01-23 10:43:00,
2013-01-23 05:48:00,8.7,2.4,30.23,NE,46,0.0,2.0,75,0.00,,,0.00,VWS V14.01,2013-01-23 10:48:00,
2013-01-23 05:53:00,8.5,2.2,30.23,East,84,1.0,2.0,75,0.00,,,0.00,VWS V14.01,2013-01-23 10:53:00,
2013-01-23 05:58:00,8.5,2.5,30.23,East,84,0.0,2.0,76,0.00,,,0.00,VWS V14.01,2013-01-23 10:58:00,
2013-01-23 06:03:00,8.5,2.5,30.23,East,84,0.0,0.0,76,0.00,,,0.00,VWS V14.01,2013-01-23 11:03:00,
2013-01-23 06:08:00,8.6,2.6,30.23,East,84,0.0,1.0,76,0.00,,,0.00,VWS V14.01,2013-01-23 11:08:00,
2013-01-23 06:13:00,8.7,3.0,30.23,East,85,0.0,1.0,77,0.00,,,0.00,VWS V14.01,2013-01-23 11:13:00,
2013-01-23 06:18:00,8.7,2.7,30.23,East,84,0.0,1.0,76,0.00,,,0.00,VWS V14.01,2013-01-23 11:18:00,
2013-01-23 06:23:00,8.8,3.1,30.23,East,84,0.0,1.0,77,0.00,,,0.00,VWS V14.01,2013-01-23 11:23:00,
2013-01-23 06:28:00,8.9,3.2,30.23,East,84,0.0,1.0,77,0.00,,,0.00,VWS V14.01,2013-01-23 11:28:00,
2013-01-23 06:33:00,8.9,3.2,30.23,East,85,0.0,1.0,77,0.00,,,0.00,VWS V14.01,2013-01-23 11:33:00,
2013-01-23 06:38:00,9.0,3.3,30.23,SE,126,1.0,2.0,77,0.00,,,0.00,VWS V14.01,2013-01-23 11:38:00,
2013-01-23 06:43:00,9.1,3.4,30.23,SE,125,0.0,2.0,77,0.00,,,0.00,VWS V14.01,2013-01-23 11:43:00,
2013-01-23 06:48:00,9.2,3.7,30.23,SE,127,0.0,2.0,78,0.00,,,0.00,VWS V14.01,2013-01-23 11:48:00,
2013-01-23 06:53:00,9.2,3.7,30.23,ENE,75,0.0,2.0,78,0.00,,,0.00,VWS V14.01,2013-01-23 11:53:00,
2013-01-23 06:58:00,9.2,3.5,30.23,ESE,106,0.0,2.0,77,0.00,,,0.00,VWS V14.01,2013-01-23 11:58:00,
2013-01-23 07:03:00,9.3,3.8,30.23,East,94,1.0,1.0,78,0.00,,,0.00,VWS V14.01,2013-01-23 12:03:00,
2013-01-23 07:08:00,9.4,3.9,30.23,ENE,69,0.0,1.0,78,0.00,,,0.00,VWS V14.01,2013-01-23 12:08:00,
2013-01-23 07:13:00,9.5,3.8,30.23,NE,53,1.0,3.0,77,0.00,,,0.00,VWS V14.01,2013-01-23 12:13:00,
2013-01-23 07:18:00,9.6,3.6,30.23,ENE,63,0.0,3.0,76,0.00,,,0.00,VWS V14.01,2013-01-23 12:18:00,
2013-01-23 07:23:00,9.6,3.3,30.23,East,99,6.0,6.0,75,0.00,,,0.00,VWS V14.01,2013-01-23 12:23:00,
2013-01-23 07:28:00,9.7,3.4,30.23,NE,44,0.0,6.0,75,0.00,,,0.00,VWS V14.01,2013-01-23 12:28:00,
2013-01-23 07:33:00,9.7,3.1,30.22,NE,49,0.0,6.0,74,0.00,,,0.00,VWS V14.01,2013-01-23 12:33:00,
2013-01-23 07:38:00,9.8,3.8,30.23,ENE,70,1.0,6.0,76,0.00,,,0.00,VWS V14.01,2013-01-23 12:38:00,
2013-01-23 07:43:00,9.8,4.1,30.23,NE,34,1.0,6.0,77,0.00,,,0.00,VWS V14.01,2013-01-23 12:43:00,
2013-01-23 07:48:00,9.8,3.8,30.22,North,7,1.0,6.0,76,0.00,,,0.00,VWS V14.01,2013-01-23 12:48:00,
2013-01-23 07:53:00,9.8,3.8,30.22,NE,53,0.0,6.0,76,0.00,,,0.00,VWS V14.01,2013-01-23 12:53:00,
2013-01-23 07:58:00,9.9,3.9,30.22,East,80,0.0,6.0,76,0.00,,,0.00,VWS V14.01,2013-01-23 12:58:00,
2013-01-23 08:03:00,10.0,4.2,30.22,East,89,0.0,1.0,77,0.00,,,0.00,VWS V14.01,2013-01-23 13:03:00,
2013-01-23 08:08:00,10.0,4.0,30.22,NNE,20,1.0,4.0,76,0.00,,,0.00,VWS V14.01,2013-01-23 13:08:00,
2013-01-23 08:13:00,10.0,4.0,30.22,NE,52,0.0,4.0,76,0.00,,,0.00,VWS V14.01,2013-01-23 13:13:00,
2013-01-23 08:18:00,10.1,3.8,30.22,ESE,113,3.0,4.0,75,0.00,,,0.00,VWS V14.01,2013-01-23 13:18:00,
2013-01-23 08:23:00,10.2,3.9,30.22,NE,53,2.0,5.0,75,0.00,,,0.00,VWS V14.01,2013-01-23 13:23:00,
2013-01-23 08:28:00,10.2,3.9,30.22,ENE,63,0.0,5.0,75,0.00,,,0.00,VWS V14.01,2013-01-23 13:28:00,
2013-01-23 08:33:00,10.3,4.2,30.22,NE,56,1.0,5.0,76,0.00,,,0.00,VWS V14.01,2013-01-23 13:33:00,
2013-01-23 08:38:00,10.4,4.1,30.22,ESE,105,0.0,5.0,75,0.00,,,0.00,VWS V14.01,2013-01-23 13:38:00,
2013-01-23 08:43:00,10.6,4.2,30.22,ENE,67,1.0,5.0,75,0.00,,,0.00,VWS V14.01,2013-01-23 13:43:00,
2013-01-23 08:48:00,10.7,4.3,30.22,NE,53,0.0,5.0,75,0.00,,,0.00,VWS V14.01,2013-01-23 13:48:00,
2013-01-23 08:53:00,10.8,4.2,30.22,ENE,65,0.0,5.0,74,0.00,,,0.00,VWS V14.01,2013-01-23 13:53:00,
2013-01-23 08:58:00,10.9,4.2,30.22,NE,56,0.0,5.0,74,0.00,,,0.00,VWS V14.01,2013-01-23 13:58:00,
2013-01-23 09:03:00,11.1,4.7,30.22,ENE,68,0.0,2.0,75,0.00,,,0.00,VWS V14.01,2013-01-23 14:03:00,
2013-01-23 09:08:00,11.3,4.6,30.22,East,101,2.0,3.0,74,0.00,,,0.00,VWS V14.01,2013-01-23 14:08:00,
2013-01-23 09:13:00,11.5,4.8,30.21,ENE,64,1.0,3.0,74,0.00,,,0.00,VWS V14.01,2013-01-23 14:13:00,
2013-01-23 09:18:00,11.7,5.0,30.21,NE,54,2.0,3.0,74,0.00,,,0.00,VWS V14.01,2013-01-23 14:18:00,
2013-01-23 09:23:00,11.9,5.2,30.21,NE,52,1.0,3.0,74,0.00,,,0.00,VWS V14.01,2013-01-23 14:23:00,
2013-01-23 09:28:00,12.0,5.3,30.21,NNE,22,2.0,3.0,74,0.00,,,0.00,VWS V14.01,2013-01-23 14:28:00,
2013-01-23 09:33:00,12.2,5.2,30.21,NE,54,0.0,4.0,73,0.00,,,0.00,VWS V14.01,2013-01-23 14:33:00,
2013-01-23 09:38:00,12.5,5.5,30.21,NE,44,1.0,4.0,73,0.00,,,0.00,VWS V14.01,2013-01-23 14:38:00,
2013-01-23 09:43:00,12.6,5.6,30.21,NNE,18,2.0,4.0,73,0.00,,,0.00,VWS V14.01,2013-01-23 14:43:00,
2013-01-23 09:48:00,12.8,5.8,30.21,NE,42,1.0,4.0,73,0.00,,,0.00,VWS V14.01,2013-01-23 14:48:00,
2013-01-23 09:53:00,13.0,6.3,30.20,NE,53,2.0,5.0,74,0.00,,,0.00,VWS V14.01,2013-01-23 14:53:00,
2013-01-23 09:58:00,13.2,5.9,30.20,ENE,71,1.0,5.0,72,0.00,,,0.00,VWS V14.01,2013-01-23 14:58:00,
2013-01-23 10:03:00,13.3,6.0,30.20,NNE,27,2.0,3.0,72,0.00,,,0.00,VWS V14.01,2013-01-23 15:03:00,
2013-01-23 10:08:00,13.6,6.3,30.20,East,80,1.0,3.0,72,0.00,,,0.00,VWS V14.01,2013-01-23 15:08:00,
2013-01-23 10:13:00,13.7,6.1,30.20,NNE,25,1.0,5.0,71,0.00,,,0.00,VWS V14.01,2013-01-23 15:13:00,
2013-01-23 10:18:00,13.9,6.6,30.21,NNW,345,2.0,5.0,72,0.00,,,0.00,VWS V14.01,2013-01-23 15:18:00,
2013-01-23 10:23:00,14.1,6.4,30.20,NNE,19,2.0,5.0,71,0.00,,,0.00,VWS V14.01,2013-01-23 15:23:00,
2013-01-23 10:28:00,14.2,6.5,30.20,East,83,1.0,6.0,71,0.00,,,0.00,VWS V14.01,2013-01-23 15:28:00,
2013-01-23 10:33:00,14.4,6.7,30.21,East,94,2.0,6.0,71,0.00,,,0.00,VWS V14.01,2013-01-23 15:33:00,
2013-01-23 10:38:00,14.7,7.0,30.21,NE,49,1.0,6.0,71,0.00,,,0.00,VWS V14.01,2013-01-23 15:38:00,
2013-01-23 10:43:00,14.8,6.8,30.20,ESE,119,1.0,7.0,70,0.00,,,0.00,VWS V14.01,2013-01-23 15:43:00,
2013-01-23 10:48:00,15.1,7.1,30.21,ENE,61,2.0,7.0,70,0.00,,,0.00,VWS V14.01,2013-01-23 15:48:00,
2013-01-23 10:53:00,15.2,7.2,30.20,SE,131,2.0,7.0,70,0.00,,,0.00,VWS V14.01,2013-01-23 15:53:00,
2013-01-23 10:58:00,15.4,7.1,30.20,NE,56,2.0,7.0,69,0.00,,,0.00,VWS V14.01,2013-01-23 15:58:00,
2013-01-23 11:03:00,15.5,6.8,30.20,East,101,2.0,5.0,68,0.00,,,0.00,VWS V14.01,2013-01-23 16:03:00,
2013-01-23 11:08:00,15.6,6.9,30.20,ENE,68,3.0,5.0,68,0.00,,,0.00,VWS V14.01,2013-01-23 16:08:00,
2013-01-23 11:13:00,15.7,6.7,30.20,NE,56,3.0,7.0,67,0.00,,,0.00,VWS V14.01,2013-01-23 16:13:00,
2013-01-23 11:18:00,15.9,7.2,30.20,NE,40,2.0,7.0,68,0.00,,,0.00,VWS V14.01,2013-01-23 16:18:00,
2013-01-23 11:23:00,16.0,7.0,30.20,NE,40,1.0,7.0,67,0.00,,,0.00,VWS V14.01,2013-01-23 16:23:00,
2013-01-23 11:28:00,16.2,7.2,30.20,NNE,18,3.0,7.0,67,0.00,,,0.00,VWS V14.01,2013-01-23 16:28:00,
2013-01-23 11:33:00,16.3,7.3,30.19,East,81,2.0,7.0,67,0.00,,,0.00,VWS V14.01,2013-01-23 16:33:00,
2013-01-23 11:38:00,16.4,7.0,30.19,ENE,69,4.0,7.0,66,0.00,,,0.00,VWS V14.01,2013-01-23 16:38:00,
2013-01-23 11:43:00,16.6,7.6,30.19,NE,36,2.0,7.0,67,0.00,,,0.00,VWS V14.01,2013-01-23 16:43:00,
2013-01-23 11:48:00,16.8,7.4,30.18,ESE,108,2.0,7.0,66,0.00,,,0.00,VWS V14.01,2013-01-23 16:48:00,
2013-01-23 11:53:00,16.7,7.0,30.18,ENE,58,2.0,7.0,65,0.00,,,0.00,VWS V14.01,2013-01-23 16:53:00,
2013-01-23 11:58:00,16.8,6.8,30.18,SE,142,2.0,9.0,64,0.00,,,0.00,VWS V14.01,2013-01-23 16:58:00,
2013-01-23 12:03:00,16.8,7.1,30.18,ENE,72,2.0,4.0,65,0.00,,,0.00,VWS V14.01,2013-01-23 17:03:00,
2013-01-23 12:08:00,17.1,7.7,30.17,NE,51,2.0,4.0,66,0.00,,,0.00,VWS V14.01,2013-01-23 17:08:00,
2013-01-23 12:13:00,17.3,7.2,30.17,North,354,4.0,6.0,64,0.00,,,0.00,VWS V14.01,2013-01-23 17:13:00,
2013-01-23 12:18:00,17.5,7.4,30.17,NNE,29,2.0,6.0,64,0.00,,,0.00,VWS V14.01,2013-01-23 17:18:00,
2013-01-23 12:23:00,17.7,7.6,30.16,NE,46,1.0,6.0,64,0.00,,,0.00,VWS V14.01,2013-01-23 17:23:00,
2013-01-23 12:28:00,17.7,7.6,30.16,NE,53,1.0,8.0,64,0.00,,,0.00,VWS V14.01,2013-01-23 17:28:00,
2013-01-23 12:33:00,17.7,7.3,30.16,ENE,62,2.0,8.0,63,0.00,,,0.00,VWS V14.01,2013-01-23 17:33:00,
2013-01-23 12:38:00,17.8,7.7,30.15,NNE,19,2.0,8.0,64,0.00,,,0.00,VWS V14.01,2013-01-23 17:38:00,
2013-01-23 12:43:00,17.7,6.6,30.15,ENE,64,3.0,8.0,61,0.00,,,0.00,VWS V14.01,2013-01-23 17:43:00,
2013-01-23 12:48:00,17.6,6.8,30.15,NE,34,2.0,8.0,62,0.00,,,0.00,VWS V14.01,2013-01-23 17:48:00,
2013-01-23 12:53:00,17.8,7.0,30.14,NE,35,0.0,8.0,62,0.00,,,0.00,VWS V14.01,2013-01-23 17:53:00,
2013-01-23 12:58:00,18.1,7.3,30.14,NE,54,4.0,8.0,62,0.00,,,0.00,VWS V14.01,2013-01-23 17:58:00,
2013-01-23 13:03:00,18.0,6.5,30.14,ENE,72,1.0,1.0,60,0.00,,,0.00,VWS V14.01,2013-01-23 18:03:00,
2013-01-23 13:08:00,18.2,6.3,30.13,ENE,60,1.0,4.0,59,0.00,,,0.00,VWS V14.01,2013-01-23 18:08:00,
2013-01-23 13:13:00,18.3,6.0,30.13,ENE,64,5.0,7.0,58,0.00,,,0.00,VWS V14.01,2013-01-23 18:13:00,
2013-01-23 13:18:00,18.4,6.1,30.12,NE,51,2.0,7.0,58,0.00,,,0.00,VWS V14.01,2013-01-23 18:18:00,
2013-01-23 13:23:00,18.5,5.4,30.12,NE,51,3.0,8.0,56,0.00,,,0.00,VWS V14.01,2013-01-23 18:23:00,
2013-01-23 13:28:00,18.8,6.5,30.12,ESE,117,1.0,8.0,58,0.00,,,0.00,VWS V14.01,2013-01-23 18:28:00,
2013-01-23 13:33:00,19.0,5.1,30.12,NE,46,3.0,8.0,54,0.00,,,0.00,VWS V14.01,2013-01-23 18:33:00,
2013-01-23 13:38:00,18.9,5.4,30.12,SE,125,3.0,8.0,55,0.00,,,0.00,VWS V14.01,2013-01-23 18:38:00,
2013-01-23 13:43:00,19.0,5.5,30.12,ENE,70,3.0,8.0,55,0.00,,,0.00,VWS V14.01,2013-01-23 18:43:00,
2013-01-23 13:48:00,19.1,4.4,30.11,ESE,113,1.0,8.0,52,0.00,,,0.00,VWS V14.01,2013-01-23 18:48:00,
2013-01-23 13:53:00,19.2,5.3,30.11,East,91,4.0,8.0,54,0.00,,,0.00,VWS V14.01,2013-01-23 18:53:00,
2013-01-23 13:58:00,19.2,5.3,30.11,NNE,20,2.0,8.0,54,0.00,,,0.00,VWS V14.01,2013-01-23 18:58:00,
2013-01-23 14:03:00,19.3,4.6,30.11,ENE,68,2.0,5.0,52,0.00,,,0.00,VWS V14.01,2013-01-23 19:03:00,
2013-01-23 14:08:00,19.5,5.2,30.10,NNE,33,1.0,5.0,53,0.00,,,0.00,VWS V14.01,2013-01-23 19:08:00,
2013-01-23 14:13:00,19.4,4.2,30.10,ENE,74,2.0,7.0,51,0.00,,,0.00,VWS V14.01,2013-01-23 19:13:00,
2013-01-23 14:18:00,19.2,4.5,30.10,North,1,3.0,7.0,52,0.00,,,0.00,VWS V14.01,2013-01-23 19:18:00,
2013-01-23 14:23:00,19.0,4.7,30.09,ENE,71,3.0,7.0,53,0.00,,,0.00,VWS V14.01,2013-01-23 19:23:00,
2013-01-23 14:28:00,18.9,4.6,30.09,SE,130,0.0,7.0,53,0.00,,,0.00,VWS V14.01,2013-01-23 19:28:00,
2013-01-23 14:33:00,19.0,4.7,30.09,ENE,72,3.0,9.0,53,0.00,,,0.00,VWS V14.01,2013-01-23 19:33:00,
2013-01-23 14:38:00,18.8,4.1,30.09,South,183,2.0,9.0,52,0.00,,,0.00,VWS V14.01,2013-01-23 19:38:00,
2013-01-23 14:43:00,18.9,4.6,30.09,ENE,71,1.0,9.0,53,0.00,,,0.00,VWS V14.01,2013-01-23 19:43:00,
2013-01-23 14:48:00,18.8,4.5,30.08,NNE,25,3.0,9.0,53,0.00,,,0.00,VWS V14.01,2013-01-23 19:48:00,
2013-01-23 14:53:00,18.8,4.9,30.09,ENE,70,3.0,9.0,54,0.00,,,0.00,VWS V14.01,2013-01-23 19:53:00,
2013-01-23 14:58:00,18.7,4.4,30.09,SSE,159,0.0,9.0,53,0.00,,,0.00,VWS V14.01,2013-01-23 19:58:00,
2013-01-23 15:03:00,18.5,4.2,30.08,ENE,58,2.0,4.0,53,0.00,,,0.00,VWS V14.01,2013-01-23 20:03:00,
2013-01-23 15:08:00,18.6,5.1,30.08,East,94,3.0,6.0,55,0.00,,,0.00,VWS V14.01,2013-01-23 20:08:00,
2013-01-23 15:13:00,18.6,4.7,30.08,NE,53,2.0,6.0,54,0.00,,,0.00,VWS V14.01,2013-01-23 20:13:00,
2013-01-23 15:18:00,18.8,6.1,30.08,East,98,6.0,9.0,57,0.00,,,0.00,VWS V14.01,2013-01-23 20:18:00,
2013-01-23 15:23:00,18.7,6.0,30.08,ENE,63,2.0,9.0,57,0.00,,,0.00,VWS V14.01,2013-01-23 20:23:00,
2013-01-23 15:28:00,18.7,6.0,30.08,NNE,26,2.0,9.0,57,0.00,,,0.00,VWS V14.01,2013-01-23 20:28:00,
2013-01-23 15:33:00,18.7,6.8,30.08,ENE,68,0.0,9.0,59,0.00,,,0.00,VWS V14.01,2013-01-23 20:33:00,
2013-01-23 15:38:00,18.7,6.4,30.08,NE,43,2.0,9.0,58,0.00,,,0.00,VWS V14.01,2013-01-23 20:38:00,
2013-01-23 15:43:00,18.7,6.8,30.08,ENE,64,0.0,9.0,59,0.00,,,0.00,VWS V14.01,2013-01-23 20:43:00,
2013-01-23 15:48:00,18.6,7.0,30.08,ESE,122,0.0,9.0,60,0.00,,,0.00,VWS V14.01,2013-01-23 20:48:00,
2013-01-23 15:53:00,18.5,6.6,30.08,NE,34,1.0,9.0,59,0.00,,,0.00,VWS V14.01,2013-01-23 20:53:00,
2013-01-23 15:58:00,18.5,6.9,30.08,ENE,61,2.0,9.0,60,0.00,,,0.00,VWS V14.01,2013-01-23 20:58:00,
2013-01-23 16:03:00,18.5,7.7,30.07,NNE,30,3.0,3.0,62,0.00,,,0.00,VWS V14.01,2013-01-23 21:03:00,
2013-01-23 16:08:00,18.5,7.3,30.07,NE,52,2.0,6.0,61,0.00,,,0.00,VWS V14.01,2013-01-23 21:08:00,
2013-01-23 16:13:00,18.4,7.6,30.07,WNW,297,1.0,7.0,62,0.00,,,0.00,VWS V14.01,2013-01-23 21:13:00,
2013-01-23 16:18:00,18.4,7.6,30.07,NNE,30,1.0,7.0,62,0.00,,,0.00,VWS V14.01,2013-01-23 21:18:00,
2013-01-23 16:23:00,18.4,7.6,30.07,ESE,115,0.0,7.0,62,0.00,,,0.00,VWS V14.01,2013-01-23 21:23:00,
2013-01-23 16:28:00,18.3,7.5,30.06,ENE,75,1.0,7.0,62,0.00,,,0.00,VWS V14.01,2013-01-23 21:28:00,
2013-01-23 16:33:00,18.3,7.8,30.06,ENE,78,0.0,7.0,63,0.00,,,0.00,VWS V14.01,2013-01-23 21:33:00,
2013-01-23 16:38:00,18.4,7.9,30.06,NNE,13,1.0,7.0,63,0.00,,,0.00,VWS V14.01,2013-01-23 21:38:00,
2013-01-23 16:43:00,18.3,8.2,30.06,ENE,59,0.0,7.0,64,0.00,,,0.00,VWS V14.01,2013-01-23 21:43:00,
2013-01-23 16:48:00,18.2,8.1,30.06,ENE,65,0.0,7.0,64,0.00,,,0.00,VWS V14.01,2013-01-23 21:48:00,
2013-01-23 16:53:00,18.1,8.3,30.06,ENE,64,1.0,7.0,65,0.00,,,0.00,VWS V14.01,2013-01-23 21:53:00,
2013-01-23 16:58:00,18.1,8.3,30.06,East,86,0.0,7.0,65,0.00,,,0.00,VWS V14.01,2013-01-23 21:58:00,
2013-01-23 17:03:00,18.0,8.6,30.06,SSE,155,1.0,1.0,66,0.00,,,0.00,VWS V14.01,2013-01-23 22:03:00,
2013-01-23 17:08:00,17.9,8.8,30.05,NE,39,1.0,3.0,67,0.00,,,0.00,VWS V14.01,2013-01-23 22:08:00,
2013-01-23 17:13:00,17.8,9.0,30.05,ENE,60,0.0,3.0,68,0.00,,,0.00,VWS V14.01,2013-01-23 22:13:00,
2013-01-23 17:18:00,17.7,8.6,30.05,NNE,25,2.0,3.0,67,0.00,,,0.00,VWS V14.01,2013-01-23 22:18:00,
2013-01-23 17:23:00,17.6,9.2,30.05,East,79,2.0,3.0,69,0.00,,,0.00,VWS V14.01,2013-01-23 22:23:00,
2013-01-23 17:28:00,17.5,9.4,30.04,NNE,32,2.0,6.0,70,0.00,,,0.00,VWS V14.01,2013-01-23 22:28:00,
2013-01-23 17:33:00,17.4,9.6,30.04,ENE,70,0.0,6.0,71,0.00,,,0.00,VWS V14.01,2013-01-23 22:33:00,
2013-01-23 17:38:00,17.3,9.8,30.04,ENE,57,2.0,6.0,72,0.00,,,0.00,VWS V14.01,2013-01-23 22:38:00,
2013-01-23 17:43:00,17.3,10.1,30.04,NNE,30,1.0,6.0,73,0.00,,,0.00,VWS V14.01,2013-01-23 22:43:00,
2013-01-23 17:48:00,17.2,10.4,30.04,SSE,158,2.0,7.0,74,0.00,,,0.00,VWS V14.01,2013-01-23 22:48:00,
2013-01-23 17:53:00,17.1,10.3,30.04,ENE,74,0.0,7.0,74,0.00,,,0.00,VWS V14.01,2013-01-23 22:53:00,
2013-01-23 17:58:00,17.1,10.6,30.04,NE,48,1.0,7.0,75,0.00,,,0.00,VWS V14.01,2013-01-23 22:58:00,
2013-01-23 18:03:00,17.0,10.5,30.04,NE,43,2.0,3.0,75,0.00,,,0.00,VWS V14.01,2013-01-23 23:03:00,
2013-01-23 18:08:00,16.9,10.7,30.04,NE,39,0.0,3.0,76,0.00,,,0.00,VWS V14.01,2013-01-23 23:08:00,
2013-01-23 18:13:00,16.8,10.6,30.04,East,86,0.0,3.0,76,0.00,,,0.00,VWS V14.01,2013-01-23 23:13:00,
2013-01-23 18:18:00,16.8,10.6,30.04,ENE,74,1.0,3.0,76,0.00,,,0.00,VWS V14.01,2013-01-23 23:18:00,
2013-01-23 18:23:00,16.8,10.3,30.04,NE,48,1.0,3.0,75,0.00,,,0.00,VWS V14.01,2013-01-23 23:23:00,
2013-01-23 18:28:00,16.8,10.0,30.04,ENE,59,0.0,3.0,74,0.00,,,0.00,VWS V14.01,2013-01-23 23:28:00,
2013-01-23 18:33:00,16.8,10.0,30.04,ENE,75,0.0,3.0,74,0.00,,,0.00,VWS V14.01,2013-01-23 23:33:00,
2013-01-23 18:38:00,16.8,10.0,30.04,NE,53,1.0,3.0,74,0.00,,,0.00,VWS V14.01,2013-01-23 23:38:00,
2013-01-23 18:43:00,16.8,10.0,30.05,ENE,58,0.0,3.0,74,0.00,,,0.00,VWS V14.01,2013-01-23 23:43:00,
2013-01-23 18:48:00,16.7,9.9,30.05,ENE,58,0.0,3.0,74,0.00,,,0.00,VWS V14.01,2013-01-23 23:48:00,
2013-01-23 18:53:00,16.8,9.7,30.05,SE,124,0.0,3.0,73,0.00,,,0.00,VWS V14.01,2013-01-23 23:53:00,
2013-01-23 18:58:00,16.9,9.8,30.04,ENE,65,0.0,3.0,73,0.00,,,0.00,VWS V14.01,2013-01-23 23:58:00,
2013-01-23 19:03:00,16.9,9.4,30.04,SE,129,2.0,2.0,72,0.00,,,0.00,VWS V14.01,2013-01-24 00:03:00,
2013-01-23 19:08:00,16.9,9.4,30.04,ENE,63,0.0,2.0,72,0.00,,,0.00,VWS V14.01,2013-01-24 00:08:00,
2013-01-23 19:13:00,16.9,9.4,30.04,NE,52,0.0,4.0,72,0.00,,,0.00,VWS V14.01,2013-01-24 00:13:00,
2013-01-23 19:18:00,17.0,9.6,30.04,ENE,77,0.0,4.0,72,0.00,,,0.00,VWS V14.01,2013-01-24 00:18:00,
2013-01-23 19:23:00,17.0,9.9,30.03,ENE,77,0.0,4.0,73,0.00,,,0.00,VWS V14.01,2013-01-24 00:23:00,
2013-01-23 19:28:00,17.0,9.9,30.03,ENE,76,0.0,4.0,73,0.00,,,0.00,VWS V14.01,2013-01-24 00:28:00,
2013-01-23 19:33:00,17.0,9.9,30.03,ESE,108,0.0,4.0,73,0.00,,,0.00,VWS V14.01,2013-01-24 00:33:00,
2013-01-23 19:38:00,17.0,9.9,30.03,NE,44,0.0,4.0,73,0.00,,,0.00,VWS V14.01,2013-01-24 00:38:00,
2013-01-23 19:43:00,17.0,9.9,30.03,NE,48,2.0,4.0,73,0.00,,,0.00,VWS V14.01,2013-01-24 00:43:00,
2013-01-23 19:48:00,17.1,9.9,30.03,ENE,75,0.0,4.0,73,0.00,,,0.00,VWS V14.01,2013-01-24 00:48:00,
2013-01-23 19:53:00,17.1,10.3,30.03,ESE,115,1.0,4.0,74,0.00,,,0.00,VWS V14.01,2013-01-24 00:53:00,
2013-01-23 19:58:00,17.2,10.4,30.03,ENE,65,1.0,4.0,74,0.00,,,0.00,VWS V14.01,2013-01-24 00:58:00,
2013-01-23 20:03:00,17.3,10.4,30.03,East,80,2.0,2.0,74,0.00,,,0.00,VWS V14.01,2013-01-24 01:03:00,
2013-01-23 20:08:00,17.3,10.4,30.03,NE,41,0.0,3.0,74,0.00,,,0.00,VWS V14.01,2013-01-24 01:08:00,
2013-01-23 20:13:00,17.4,11.1,30.03,East,91,0.0,4.0,76,0.00,,,0.00,VWS V14.01,2013-01-24 01:13:00,
2013-01-23 20:18:00,17.4,11.1,30.03,ENE,75,1.0,4.0,76,0.00,,,0.00,VWS V14.01,2013-01-24 01:18:00,
2013-01-23 20:23:00,17.4,11.7,30.03,ENE,60,2.0,4.0,78,0.00,,,0.00,VWS V14.01,2013-01-24 01:23:00,
2013-01-23 20:28:00,17.3,11.9,30.02,SSE,155,0.0,4.0,79,0.00,,,0.00,VWS V14.01,2013-01-24 01:28:00,
2013-01-23 20:33:00,17.3,12.2,30.03,East,88,1.0,4.0,80,0.00,,,0.00,VWS V14.01,2013-01-24 01:33:00,
2013-01-23 20:38:00,17.2,12.4,30.03,ENE,69,1.0,4.0,81,0.00,,,0.00,VWS V14.01,2013-01-24 01:38:00,
2013-01-23 20:43:00,17.1,12.8,30.03,ESE,115,0.0,4.0,83,0.00,,,0.00,VWS V14.01,2013-01-24 01:43:00,
2013-01-23 20:48:00,17.1,13.1,30.03,NE,48,0.0,4.0,84,0.00,,,0.00,VWS V14.01,2013-01-24 01:48:00,
2013-01-23 20:53:00,17.0,13.0,30.03,ENE,64,0.0,4.0,84,0.00,,,0.00,VWS V14.01,2013-01-24 01:53:00,
2013-01-23 20:58:00,17.0,13.3,30.02,ENE,64,0.0,4.0,85,0.00,,,0.00,VWS V14.01,2013-01-24 01:58:00,
2013-01-23 21:03:00,16.9,13.2,30.02,SSE,160,0.0,0.0,85,0.00,,,0.00,VWS V14.01,2013-01-24 02:03:00,
2013-01-23 21:08:00,16.9,13.4,30.02,SE,136,0.0,2.0,86,0.00,,,0.00,VWS V14.01,2013-01-24 02:08:00,
2013-01-23 21:13:00,16.9,13.4,30.02,ESE,116,0.0,2.0,86,0.00,,,0.00,VWS V14.01,2013-01-24 02:13:00,
2013-01-23 21:18:00,16.9,13.4,30.02,ENE,57,0.0,2.0,86,0.00,,,0.00,VWS V14.01,2013-01-24 02:18:00,
2013-01-23 21:23:00,16.9,13.7,30.02,ESE,113,0.0,2.0,87,0.00,,,0.00,VWS V14.01,2013-01-24 02:23:00,
2013-01-23 21:28:00,16.9,13.7,30.02,ENE,76,1.0,2.0,87,0.00,,,0.00,VWS V14.01,2013-01-24 02:28:00,
2013-01-23 21:33:00,16.9,13.7,30.02,ESE,117,0.0,2.0,87,0.00,,,0.00,VWS V14.01,2013-01-24 02:33:00,
2013-01-23 21:38:00,16.9,13.7,30.02,ESE,117,0.0,2.0,87,0.00,,,0.00,VWS V14.01,2013-01-24 02:38:00,
2013-01-23 21:43:00,16.9,13.7,30.02,NE,51,0.0,2.0,87,0.00,,,0.00,VWS V14.01,2013-01-24 02:43:00,
2013-01-23 21:48:00,16.9,14.0,30.02,East,89,0.0,2.0,88,0.00,,,0.00,VWS V14.01,2013-01-24 02:48:00,
2013-01-23 21:53:00,16.9,14.0,30.02,East,85,0.0,2.0,88,0.00,,,0.00,VWS V14.01,2013-01-24 02:53:00,
2013-01-23 21:58:00,16.8,13.9,30.01,East,86,1.0,2.0,88,0.00,,,0.00,VWS V14.01,2013-01-24 02:58:00,
2013-01-23 22:03:00,16.8,13.9,30.01,NE,56,0.0,0.0,88,0.00,,,0.00,VWS V14.01,2013-01-24 03:03:00,
2013-01-23 22:08:00,16.7,13.8,30.01,NE,56,0.0,1.0,88,0.00,,,0.00,VWS V14.01,2013-01-24 03:08:00,
2013-01-23 22:13:00,16.7,13.8,30.01,NE,42,0.0,1.0,88,0.00,,,0.00,VWS V14.01,2013-01-24 03:13:00,
2013-01-23 22:18:00,16.6,13.9,30.01,NE,42,0.0,1.0,89,0.00,,,0.00,VWS V14.01,2013-01-24 03:18:00,
2013-01-23 22:23:00,16.6,13.9,30.01,NE,43,0.0,1.0,89,0.00,,,0.00,VWS V14.01,2013-01-24 03:23:00,
2013-01-23 22:28:00,16.5,13.8,30.00,NE,42,0.0,1.0,89,0.00,,,0.00,VWS V14.01,2013-01-24 03:28:00,
2013-01-23 22:33:00,16.5,13.8,30.00,NE,43,0.0,1.0,89,0.00,,,0.00,VWS V14.01,2013-01-24 03:33:00,
2013-01-23 22:38:00,16.5,13.8,30.00,NE,43,0.0,1.0,89,0.00,,,0.00,VWS V14.01,2013-01-24 03:38:00,
2013-01-23 22:43:00,16.4,13.7,30.00,NE,43,0.0,1.0,89,0.00,,,0.00,VWS V14.01,2013-01-24 03:43:00,
2013-01-23 22:48:00,16.5,14.1,30.00,NE,42,0.0,1.0,90,0.00,,,0.00,VWS V14.01,2013-01-24 03:48:00,
2013-01-23 22:53:00,16.5,14.1,30.00,NE,43,0.0,1.0,90,0.00,,,0.00,VWS V14.01,2013-01-24 03:53:00,
2013-01-23 22:58:00,16.6,14.2,30.00,NE,43,0.0,1.0,90,0.00,,,0.00,VWS V14.01,2013-01-24 03:58:00,
2013-01-23 23:03:00,16.6,14.2,30.00,NE,43,0.0,0.0,90,0.00,,,0.00,VWS V14.01,2013-01-24 04:03:00,
2013-01-23 23:08:00,16.7,14.3,30.00,NE,43,0.0,0.0,90,0.00,,,0.00,VWS V14.01,2013-01-24 04:08:00,
2013-01-23 23:12:00,16.8,14.4,30.00,NE,43,0.0,1.0,90,0.00,,,0.00,VWS V14.01,2013-01-24 04:12:00,
2013-01-23 23:17:00,16.8,14.4,30.00,NE,43,0.0,1.0,90,0.00,,,0.00,VWS V14.01,2013-01-24 04:17:00,
2013-01-23 23:23:00,16.9,14.5,30.00,NE,43,0.0,1.0,90,0.00,,,0.00,VWS V14.01,2013-01-24 04:23:00,
2013-01-23 23:28:00,16.9,14.5,30.00,NE,41,0.0,1.0,90,0.00,,,0.00,VWS V14.01,2013-01-24 04:28:00,
2013-01-23 23:33:00,17.0,14.6,30.00,NE,41,0.0,1.0,90,0.00,,,0.00,VWS V14.01,2013-01-24 04:33:00,
2013-01-23 23:38:00,17.0,14.6,30.00,NE,41,0.0,1.0,90,0.00,,,0.00,VWS V14.01,2013-01-24 04:38:00,
2013-01-23 23:42:00,17.1,14.7,30.00,NE,41,0.0,1.0,90,0.00,,,0.00,VWS V14.01,2013-01-24 04:42:00,
2013-01-23 23:47:00,17.1,14.7,30.00,NE,41,0.0,1.0,90,0.00,,,0.00,VWS V14.01,2013-01-24 04:47:00,
2013-01-23 23:52:00,17.1,14.7,30.01,NE,41,0.0,1.0,90,0.00,,,0.00,VWS V14.01,2013-01-24 04:52:00,
2013-01-23 23:57:00,17.2,14.8,30.01,NE,41,0.0,1.0,90,0.00,,,0.00,VWS V14.01,2013-01-24 04:57:00,